TimeCDT,TemperatureF,Dew PointF,Humidity,Sea Level PressureIn,VisibilityMPH,Wind Direction,Wind SpeedMPH,Gust SpeedMPH,PrecipitationIn,Events,Conditions,WindDirDegrees,DateUTC
12:15 AM,68.7,68.7,100,29.97,10.0,South,6.9,-,N/A,,Overcast,170,2013-06-16 05:15:00
12:35 AM,68.5,68.4,99,29.96,10.0,South,8.1,-,N/A,,Overcast,170,2013-06-16 05:35:00
12:55 AM,68.0,68.0,100,29.95,10.0,South,5.8,-,N/A,,Scattered Clouds,180,2013-06-16 05:55:00
1:15 AM,67.1,67.1,100,29.94,7.0,South,5.8,-,N/A,,Clear,180,2013-06-16 06:15:00
1:35 AM,66.9,66.9,100,29.95,7.0,SSW,6.9,-,N/A,,Clear,200,2013-06-16 06:35:00
1:55 AM,67.1,67.1,100,29.96,7.0,SSW,5.8,-,N/A,,Clear,210,2013-06-16 06:55:00
2:15 AM,66.7,66.7,100,29.96,7.0,SSW,4.6,-,N/A,,Clear,210,2013-06-16 07:15:00
2:35 AM,66.6,66.6,100,29.96,7.0,South,4.6,-,N/A,,Clear,190,2013-06-16 07:35:00
2:55 AM,66.2,66.2,100,29.96,5.0,Calm,Calm,-,N/A,,Clear,0,2013-06-16 07:55:00
3:15 AM,65.8,65.8,100,29.95,5.0,Calm,Calm,-,N/A,,Clear,0,2013-06-16 08:15:00
3:35 AM,65.5,65.5,100,29.96,3.0,Calm,Calm,-,N/A,,Clear,0,2013-06-16 08:35:00
3:55 AM,65.3,65.3,100,29.96,0.5,Calm,Calm,-,N/A,Fog,Fog,0,2013-06-16 08:55:00
4:15 AM,65.3,65.3,100,29.96,2.5,Calm,Calm,-,N/A,,Overcast,0,2013-06-16 09:15:00
4:35 AM,64.8,64.8,100,29.96,0.2,Calm,Calm,-,N/A,Fog,Fog,0,2013-06-16 09:35:00
4:55 AM,65.3,65.3,100,29.96,0.5,Calm,Calm,-,N/A,Fog,Fog,0,2013-06-16 09:55:00
5:15 AM,64.4,64.4,100,29.95,0.2,Calm,Calm,-,N/A,Fog,Fog,0,2013-06-16 10:15:00
5:35 AM,64.9,64.9,100,29.95,0.2,Calm,Calm,-,N/A,Fog,Fog,0,2013-06-16 10:35:00
5:55 AM,65.7,65.7,100,29.95,0.2,Calm,Calm,-,N/A,Fog,Fog,0,2013-06-16 10:55:00
6:15 AM,66.2,66.2,100,29.96,1.5,Calm,Calm,-,N/A,,Overcast,0,2013-06-16 11:15:00
6:35 AM,66.6,66.6,100,29.96,1.2,Calm,Calm,-,N/A,,Overcast,0,2013-06-16 11:35:00
6:55 AM,67.1,67.1,100,29.97,0.5,North,3.5,-,N/A,Fog,Fog,350,2013-06-16 11:55:00
7:15 AM,67.3,67.3,100,29.97,0.2,North,4.6,-,N/A,Fog,Fog,350,2013-06-16 12:15:00
7:35 AM,67.3,67.3,100,29.98,0.2,North,6.9,-,N/A,Fog,Fog,360,2013-06-16 12:35:00
7:55 AM,68.0,68.0,100,29.98,1.5,North,8.1,-,N/A,,Overcast,10,2013-06-16 12:55:00
8:15 AM,68.4,68.4,100,29.99,3.0,NNE,4.6,-,N/A,,Overcast,20,2013-06-16 13:15:00
8:35 AM,68.5,68.5,100,29.99,4.0,NNE,8.1,-,N/A,,Overcast,20,2013-06-16 13:35:00
8:55 AM,69.1,69.1,100,29.99,5.0,NNE,9.2,-,N/A,,Overcast,30,2013-06-16 13:55:00
9:15 AM,69.4,69.4,100,29.99,5.0,NNE,8.1,-,N/A,,Overcast,30,2013-06-16 14:15:00
9:35 AM,70.0,70.0,100,29.99,4.0,NNE,6.9,-,N/A,,Overcast,20,2013-06-16 14:35:00
9:55 AM,70.9,70.3,98,29.99,5.0,ENE,5.8,-,N/A,,Overcast,60,2013-06-16 14:55:00
10:15 AM,72.0,70.9,96,29.99,4.0,NE,5.8,-,N/A,,Overcast,50,2013-06-16 15:15:00
10:35 AM,73.4,71.2,93,29.99,5.0,ENE,6.9,-,N/A,,Overcast,60,2013-06-16 15:35:00
10:55 AM,74.1,70.9,90,29.99,5.0,NE,6.9,-,N/A,,Overcast,40,2013-06-16 15:55:00
11:15 AM,75.2,70.7,86,30.00,5.0,ENE,6.9,-,N/A,,Mostly Cloudy,60,2013-06-16 16:15:00
11:35 AM,75.4,70.9,86,30.00,7.0,ENE,5.8,-,N/A,,Scattered Clouds,70,2013-06-16 16:35:00
11:55 AM,77.0,71.2,82,30.00,10.0,ENE,6.9,-,N/A,,Scattered Clouds,60,2013-06-16 16:55:00
12:15 PM,77.7,70.9,79,30.00,10.0,ENE,6.9,-,N/A,,Clear,60,2013-06-16 17:15:00
12:35 PM,78.3,70.9,78,30.01,10.0,ENE,8.1,-,N/A,,Scattered Clouds,60,2013-06-16 17:35:00
12:55 PM,78.8,69.8,74,30.01,10.0,ENE,4.6,-,N/A,,Mostly Cloudy,70,2013-06-16 17:55:00
1:15 PM,78.4,69.4,74,30.00,10.0,ENE,5.8,-,N/A,,Mostly Cloudy,70,2013-06-16 18:15:00
1:35 PM,78.1,69.8,76,30.00,10.0,ENE,5.8,-,N/A,,Mostly Cloudy,60,2013-06-16 18:35:00
1:55 PM,78.4,68.2,71,29.99,10.0,ENE,4.6,-,N/A,,Mostly Cloudy,60,2013-06-16 18:55:00
2:15 PM,80.2,68.0,66,29.99,10.0,East,8.1,-,N/A,,Scattered Clouds,100,2013-06-16 19:15:00
2:35 PM,82.6,67.5,60,29.99,10.0,ENE,5.8,-,N/A,,Scattered Clouds,60,2013-06-16 19:35:00
2:55 PM,82.6,67.5,60,29.99,10.0,ENE,5.8,-,N/A,,Scattered Clouds,70,2013-06-16 19:55:00
3:15 PM,83.1,67.3,59,29.99,10.0,East,9.2,-,N/A,,Scattered Clouds,100,2013-06-16 20:15:00
3:35 PM,83.5,66.4,56,29.97,10.0,ESE,5.8,-,N/A,,Clear,110,2013-06-16 20:35:00
3:55 PM,82.8,66.2,57,29.97,10.0,ESE,6.9,-,N/A,,Clear,120,2013-06-16 20:55:00
4:15 PM,83.8,66.6,56,29.96,10.0,East,9.2,-,N/A,,Clear,100,2013-06-16 21:15:00
4:35 PM,83.1,66.6,57,29.96,10.0,ESE,5.8,-,N/A,,Scattered Clouds,110,2013-06-16 21:35:00
4:55 PM,84.2,66.2,55,29.96,10.0,East,4.6,-,N/A,,Scattered Clouds,80,2013-06-16 21:55:00
5:15 PM,82.0,66.6,59,29.97,10.0,Calm,Calm,-,N/A,,Scattered Clouds,0,2013-06-16 22:15:00
5:35 PM,84.2,64.4,51,29.96,10.0,NE,4.6,-,N/A,,Scattered Clouds,40,2013-06-16 22:35:00
5:55 PM,83.5,67.6,59,29.95,10.0,SSE,6.9,-,N/A,,Scattered Clouds,150,2013-06-16 22:55:00
6:15 PM,83.3,64.8,53,29.94,10.0,East,8.1,-,N/A,,Scattered Clouds,100,2013-06-16 23:15:00
6:35 PM,81.7,64.2,55,29.95,10.0,East,3.5,-,N/A,,Clear,80,2013-06-16 23:35:00
6:55 PM,82.8,64.9,55,29.96,10.0,Calm,Calm,-,N/A,,Scattered Clouds,0,2013-06-16 23:55:00
7:15 PM,81.3,65.5,58,29.97,10.0,Calm,Calm,-,N/A,,Clear,0,2013-06-17 00:15:00
7:35 PM,80.4,66.7,63,29.97,10.0,East,4.6,-,N/A,,Clear,80,2013-06-17 00:35:00
7:55 PM,79.2,66.0,64,29.96,10.0,ESE,4.6,-,N/A,,Clear,120,2013-06-17 00:55:00
8:15 PM,78.4,66.6,67,29.97,10.0,Calm,Calm,-,N/A,,Clear,0,2013-06-17 01:15:00
8:35 PM,78.6,66.2,66,29.99,10.0,Calm,Calm,-,N/A,,Scattered Clouds,0,2013-06-17 01:35:00
8:55 PM,77.5,66.7,69,29.99,10.0,Calm,Calm,-,N/A,,Clear,0,2013-06-17 01:55:00
9:15 PM,77.2,66.0,68,30.00,10.0,Calm,Calm,-,N/A,,Clear,0,2013-06-17 02:15:00
9:35 PM,75.7,66.2,72,29.99,10.0,South,4.6,-,N/A,,Clear,180,2013-06-17 02:35:00
9:55 PM,74.7,67.3,78,30.00,10.0,SSW,4.6,-,N/A,,Clear,210,2013-06-17 02:55:00
10:15 PM,75.2,67.3,76,29.99,10.0,SSW,6.9,-,N/A,,Clear,200,2013-06-17 03:15:00
10:35 PM,74.7,67.6,79,29.99,10.0,SSW,5.8,-,N/A,,Clear,200,2013-06-17 03:35:00
10:55 PM,73.4,68.0,83,29.97,10.0,South,5.8,-,N/A,,Clear,170,2013-06-17 03:55:00
11:15 PM,72.5,67.5,84,29.96,10.0,South,6.9,-,N/A,,Clear,190,2013-06-17 04:15:00
11:35 PM,72.0,67.1,85,29.96,10.0,South,5.8,-,N/A,,Clear,170,2013-06-17 04:35:00
11:55 PM,72.3,67.1,84,29.97,10.0,South,4.6,-,N/A,,Clear,170,2013-06-17 04:55:00